State University, AR

9:54 AM CST on February 08, 2016 (GMT -0600)
Jonesboro Municipal

Weather History for KJBR - January, 2013

Change the Weather History Date:

Sunday, January 6, 2013

  Actual Average Record
Temperature  
Mean Temperature 38 °F 37 °F  
Max Temperature 48 °F 46 °F 70 °F (1895)
Min Temperature 27 °F 29 °F 4 °F (1924)
Degree Days  
Heating Degree Days 27 28  
Month to date heating degree days 184 168  
Since 1 July heating degree days 1446 1610  
Cooling Degree Days 0 0  
Month to date cooling degree days 0 0  
Year to date cooling degree days 0 0  
Moisture  
Dew Point 30 °F    
Average Humidity 71    
Maximum Humidity 96    
Minimum Humidity 45    
Precipitation  
Precipitation 0.00 in 0.10 in 3.50 in (1900)
Month to date precipitation T 0.64  
Year to date precipitation T 0.64  
Snow  
Snow 0.00 in 0.00 in 6.20 in (1910)
Month to date snowfall 0.0 0.4  
Since 1 July snowfall 6.5 1.0  
Snow Depth 0.00 in    
Sea Level Pressure  
Sea Level Pressure 30.28 in    
Wind  
Wind Speed 5 mph (West)    
Max Wind Speed 15 mph    
Max Gust Speed 21 mph    
Visibility 6 miles    
Events Fog    
T = Trace of Precipitation, MM = Missing Value Source: NWS Daily Summary

Daily Weather History Graph

Daily Weather History Graph

Search for Another Location

Airport or City:

Trip Planner

Search our weather history database for the weather conditions in past years. The results will help you decide how hot, cold, wet, or windy it might be!

Date:

Astronomy

Jan. 06, 2013 Rise Set
Actual Time 7:13 AM CST 5:04 PM CST
Civil Twilight 6:45 AM CST 5:32 PM CST
Nautical Twilight 6:13 AM CST 6:04 PM CST
Astronomical Twilight 5:42 AM CST 6:35 PM CST
Moon 1:32 AM CST (1/6) 12:28 PM CST (1/6)
Length of Visible Light 10h 47m
Length of Day
9h 50m
Waning Crescent, 33% of the Moon is Illuminated
Jan 6
Waning Crescent
Jan 11
New
Jan 18
First Quarter
Jan 26
Full
Feb 3
Last Quarter

Hourly Weather History & Observations

Time (CST) Temp. Windchill Dew Point Humidity Pressure Visibility Wind Dir Wind Speed Gust Speed Precip Events Conditions
12:53 AM 37.0 °F 31.6 °F 34.0 °F 89% 30.25 in 10.0 mi SW 6.9 mph - N/A   Clear
1:53 AM 37.0 °F 32.4 °F 34.0 °F 89% 30.24 in 8.0 mi West 5.8 mph - N/A   Scattered Clouds
3:53 AM 34.0 °F 29.8 °F 32.0 °F 92% 30.22 in 6.0 mi SW 4.6 mph - N/A   Clear
4:53 AM 34.0 °F 31.0 °F 32.0 °F 92% 30.22 in 3.0 mi WSW 3.5 mph - N/A   Clear
5:41 AM 33.8 °F - 30.2 °F 87% 30.22 in 4.0 mi Calm Calm - N/A   Scattered Clouds
5:49 AM 33.8 °F 29.6 °F 30.2 °F 87% 30.22 in 2.5 mi SW 4.6 mph - N/A   Mostly Cloudy
5:53 AM 33.1 °F 27.7 °F 30.9 °F 92% 30.23 in 2.0 mi WSW 5.8 mph - N/A   Mostly Cloudy
6:06 AM 33.8 °F 27.7 °F 32.0 °F 93% 30.23 in 0.8 mi WSW 6.9 mph - N/A   Overcast
6:30 AM 33.8 °F 28.6 °F 33.8 °F 100% 30.23 in 1.2 mi WSW 5.8 mph - N/A   Overcast
6:53 AM 34.0 °F 28.0 °F 32.0 °F 92% 30.25 in 0.8 mi SW 6.9 mph - N/A   Mist
7:07 AM 33.8 °F 27.7 °F 32.0 °F 93% 30.25 in 0.5 mi WSW 6.9 mph - N/A Fog Fog
7:20 AM 33.8 °F 27.7 °F 32.0 °F 93% 30.25 in 0.2 mi SW 6.9 mph - N/A Fog Fog
7:31 AM 33.8 °F 28.6 °F 32.0 °F 93% 30.25 in 0.2 mi SW 5.8 mph - N/A Fog Fog
7:53 AM 33.1 °F 27.7 °F 32.0 °F 96% 30.26 in 0.2 mi WSW 5.8 mph - N/A Fog Fog
8:06 AM 33.8 °F 28.6 °F 32.0 °F 93% 30.26 in 0.5 mi SW 5.8 mph - N/A Fog Fog
8:14 AM 33.8 °F 27.7 °F 32.0 °F 93% 30.26 in 0.8 mi SW 6.9 mph - N/A   Mist
8:24 AM 33.8 °F 28.6 °F 33.8 °F 100% 30.26 in 1.2 mi SW 5.8 mph - N/A   Scattered Clouds
8:32 AM 33.8 °F 30.8 °F 33.8 °F 100% 30.27 in 3.0 mi SW 3.5 mph - N/A   Partly Cloudy
8:53 AM 36.0 °F 32.1 °F 33.1 °F 89% 30.28 in 6.0 mi WSW 4.6 mph - N/A   Clear
9:53 AM 42.1 °F 37.1 °F 33.1 °F 70% 30.30 in 10.0 mi NW 8.1 mph - N/A   Clear
10:53 AM 44.1 °F 38.6 °F 30.9 °F 60% 30.28 in 10.0 mi West 10.4 mph - N/A   Clear
11:53 AM 45.0 °F 39.3 °F 30.9 °F 58% 30.27 in 10.0 mi West 11.5 mph - N/A   Clear
12:53 PM 46.0 °F 41.9 °F 30.0 °F 54% 30.26 in 10.0 mi NW 8.1 mph - N/A   Clear
1:53 PM 46.9 °F - 28.9 °F 50% 30.27 in 10.0 mi WNW 5.8 mph - N/A   Clear
2:53 PM 48.0 °F - 28.0 °F 46% 30.29 in 10.0 mi North 10.4 mph - N/A   Clear
3:53 PM 46.9 °F - 27.0 °F 46% 30.32 in 10.0 mi North 8.1 mph - N/A   Clear
4:53 PM 45.0 °F - 28.0 °F 52% 30.34 in 10.0 mi Calm Calm - N/A   Clear
5:53 PM 36.0 °F 33.3 °F 27.0 °F 70% 30.35 in 10.0 mi NNE 3.5 mph - N/A   Clear
6:53 PM 33.1 °F 28.7 °F 27.0 °F 78% 30.37 in 10.0 mi NNE 4.6 mph - N/A   Clear
7:53 PM 36.0 °F 32.1 °F 26.1 °F 67% 30.38 in 10.0 mi NNE 4.6 mph - N/A   Clear
8:53 PM 30.0 °F 26.5 °F 25.0 °F 82% 30.38 in 10.0 mi NE 3.5 mph - N/A   Clear
9:53 PM 28.9 °F - 23.0 °F 78% 30.40 in 10.0 mi Calm Calm - N/A   Clear
10:53 PM 28.9 °F - 24.1 °F 82% 30.41 in 10.0 mi Calm Calm - N/A   Clear
11:53 PM 28.9 °F - 25.0 °F 85% 30.41 in 10.0 mi Calm Calm - N/A   Clear